Location: Rainwater Observatory
(33.2833°N, 89.3833°W)
Time: 11:28:19
(UTC-05:00)

Daily predictions for brighter satellites

Satellite Brightness Start Highest point End
(mag) Time Altitude Azimuth Time Altitude Azimuth Time Altitude Azimuth
ALOS 2.8 19:31:34 10° SE 19:35:52 38° ENE 19:40:11 10° N
ASTRO F (AKARI) 4.4 19:33:02 10° N 19:36:11 78° W 19:39:21 10° SSW
HJ-1C 4.5 19:33:33 10° SE 19:36:24 26° ENE 19:39:17 10° NNE
Cosmos 1727 Rocket 4.4 19:30:35 10° N 19:36:45 71° W 19:42:51 10° S
CZ-3B DEB 3.6 19:21:52 10° SW 19:36:46 88° NW 19:43:22 10° NE
Cosmos 1812 Rocket 4.1 19:34:24 10° SSE 19:38:29 38° E 19:42:34 10° NNE
Resurs 01 Rocket 2.7 19:35:59 10° SE 19:39:34 25° ENE 19:43:12 10° NNE
Cosmos 1766 4.2 19:36:28 10° SSE 19:39:41 25° E 19:42:55 10° NE
Meteor 2-15 Rocket 4.4 19:35:34 10° N 19:41:45 79° E 19:47:51 10° S
RESURS DK-1 4.2 19:41:40 10° NNE 19:43:54 14° ENE 19:46:08 10° E
Cosmos 1937 Rocket 3.5 19:38:51 10° S 19:44:00 64° ESE 19:49:13 10° NNE
BREEZE-M DEB (TANK) 3.4 19:42:56 10° S 19:45:06 22° ESE 19:49:11 10° ENE
COSMOS 2406 3.3 19:40:01 10° NNW 19:45:39 56° ENE 19:51:14 10° SE
Cosmos 1680 Rocket 4.0 19:41:33 10° NNW 19:46:46 65° WSW 19:51:55 10° S
SL-27 R/B 4.2 19:46:31 10° NNE 19:48:47 16° ENE 19:50:29 12° E
Lacrosse 5 1.9 19:44:12 10° SSW 19:49:11 63° SE 19:54:12 10° NE
Cosmos 2298 Rocket 4.1 19:46:17 10° SSW 19:51:34 85° WNW 19:56:54 10° NNE
Cosmos 2228 4.4 19:47:43 10° SSW 19:51:46 44° W 19:55:50 10° N
Cosmos 1844 3.8 19:49:51 10° SSW 19:55:35 89° WNW 20:01:25 10° NNE
SeaSat 1 2.4 19:51:37 10° SSE 19:56:30 70° ENE 20:01:25 10° NNW
Cosmos 1000 Rocket 4.4 19:50:23 10° N 19:56:34 73° E 20:02:45 10° SSE
Delta 2 Rocket 3.7 19:51:57 10° W 19:56:44 64° N 20:00:11 15° E
OE (NEXTSAT) 4.5 19:55:03 10° WSW 19:58:38 81° NW 20:02:13 10° NE
Cosmos 2123 Rocket 4.3 19:58:18 10° N 20:04:19 45° E 20:10:16 10° SSE
FREGAT/IRIS 3.6 20:02:00 10° S 20:05:00 50° W 20:07:59 10° NNW
IUS-7 SRM-1 4.3 20:07:47 10° S 20:08:30 11° SSE 20:08:30 11° SSE
Cosmos 2344 3.7 20:01:41 10° SSW 20:09:25 84° WNW 20:17:40 10° NNE
CZ-2D R/B 3.8 20:06:58 12° SE 20:10:17 37° ENE 20:13:52 10° N
Cosmos 1867 4.4 20:09:57 10° SSE 20:14:30 28° ESE 20:19:06 10° NE
Helios 1A 3.9 20:14:06 22° ESE 20:15:39 28° ENE 20:19:15 10° NNE
Cosmos 1805 3.7 20:12:49 10° SSE 20:16:23 36° E 20:19:59 10° NNE
Yuri Rocket 3.5 20:13:17 10° WSW 20:17:16 42° S 20:19:20 24° ESE
Helios 1B rocket 2.8 20:14:12 10° NNE 20:18:06 39° E 20:21:56 10° S
Meteor 1-22 Rocket 4.3 20:12:54 10° S 20:18:38 86° W 20:24:37 10° N
Cosmos 1437 Rocket 4.0 20:15:34 10° SSW 20:19:22 45° W 20:23:15 10° N
SJ-6B 4.0 20:16:21 10° S 20:19:54 41° W 20:23:27 10° NNW
Lacrosse 4 Rocket 3.7 20:20:53 10° WSW 20:24:16 25° WNW 20:27:39 10° N
Resurs 1-3 3.5 20:22:48 10° SSE 20:27:09 78° ENE 20:31:33 10° N
Spot 2 Rocket 3.6 20:32:02 10° S 20:37:07 78° WSW 20:42:14 10° NNW
Cosmos 1758 3.2 20:36:13 10° S 20:40:08 64° E 20:44:05 10° NNE
In-Cosmos 22 3.9 20:36:36 10° N 20:41:55 75° E 20:46:00 17° SSE
GPS 2-05 Rocket1 3.7 20:38:48 10° SW 20:41:43 38° S 20:41:43 38° S
SAR-Lupe-4 3.4 20:45:19 68° SE 20:45:40 78° ENE 20:49:14 10° N
USA 215 3.3 20:39:39 10° NE 20:46:11 80° NW 20:52:42 10° SW
Cosmos 1459 Rocket 4.4 20:45:23 35° ESE 20:46:32 38° E 20:52:13 10° NNE
Cosmos 1939 Rocket 4.2 20:49:27 27° NE 20:49:27 27° NE 20:51:49 10° N
Cosmos 2278 Rocket 2.9 20:42:48 10° SW 20:48:20 56° WNW 20:53:56 10° NNE
Cosmos 2173 Rocket 4.3 20:48:08 37° E 20:48:38 38° E 20:54:16 10° NNE
Tiangong 1 2.8 20:46:59 10° NW 20:48:48 24° N 20:48:48 24° N
Cosmos 1953 2.2 20:46:48 13° S 20:50:26 81° E 20:54:30 10° N
CZ-3 Stage 3 3.7 20:03:41 10° WSW 20:50:37 80° S 20:54:41 35° E
Cosmos 1833 Rocket 3.9 20:48:37 10° N 20:52:40 25° NE 20:52:40 25° NE
Envisat 3.0 20:54:30 51° E 20:55:02 54° ENE 20:59:59 10° N
H-2A R/B 4.5 20:51:39 10° SSW 20:55:08 33° W 20:58:41 10° NNW
Okean 3 Rocket 3.6 20:53:23 10° N 20:57:47 78° W 20:59:29 37° S
Cosmos 2297 3.6 20:54:56 10° SSW 21:00:36 80° ESE 21:06:21 10° NNE
Cosmos 1125 Rocket 3.4 20:56:14 10° SSW 21:01:25 88° WNW 21:06:39 10° NNE
ATLAS 5 CENTAUR R/B 4.1 21:08:14 10° SSW 21:08:20 11° SSW 21:08:20 11° SSW
Meteor 1-4 Rocket 4.2 21:14:47 30° NNW 21:14:47 30° NNW 21:16:54 10° N
GP-B 3.3 21:14:49 67° WSW 21:15:02 69° W 21:19:28 10° N
Resurs 01 Rocket 3.9 21:12:29 10° SSW 21:15:57 23° W 21:19:26 10° NW
ERS-1 Rocket 4.1 21:23:31 33° NNE 21:23:31 33° NNE 21:26:28 10° N
RESURS DK-1 3.6 21:18:15 10° NW 21:22:06 38° WSW 21:22:06 38° WSW
Cosmos 2082 Rocket 2.7 21:17:13 10° N 21:21:38 45° NNE 21:21:38 45° NNE
Cosmos 1818 4.0 21:21:40 10° NNW 21:26:00 51° N 21:26:00 51° N
Cosmos 2100 Rocket 4.0 21:28:37 36° SSW 21:31:21 81° W 21:37:45 10° N
Lacrosse 5 4.3 21:28:48 10° W 21:32:32 20° NW 21:36:15 10° N
Cosmos 1802 Rocket 4.3 21:49:52 61° NNW 21:49:52 61° NNW 21:55:01 10° N
Cosmos 2061 Rocket 4.5 21:56:15 55° WSW 21:56:56 58° W 22:03:16 10° N
